#timestamp,LO_Frequency,Hit,StdDev 
1680663615.1,286046999.8,N
1680663635.8,286046998.7,N
1680663655.7,286047000.8,N
1680663675.5,286047000.5,N
1680663695.4,286046999.2,N
1680663715.2,286046999.5,N
1680663735.0,286046998.7,N
1680663735.9,286046998.7,N
1680663755.8,286046999.0,N
1680663775.6,286046999.2,N
1680663795.5,286046998.3,N
1680663815.3,286047000.7,N
1680663835.1,286047000.9,N
1680663855.9,286047000.5,N
1680663875.7,286047000.3,N
1680663895.6,286047002.0,N
1680663915.4,286047000.1,N
1680663935.2,286047001.2,N
1680663955.1,286046996.9,N
1680663956.0,286046996.9,N
1680663975.8,286046999.3,N
1680663995.7,286047002.0,N
1680664015.5,286047002.6,N
1680664035.3,286047000.6,N
1680664055.2,286046998.6,N
1680664075.9,286047000.0,N
1680664095.7,286047002.3,N
1680664115.6,286047002.5,N
1680664135.4,286047001.4,N
1680664155.2,286047002.7,N
1680664175.1,286046999.3,N
1680664176.0,286046999.3,N
1680664195.8,286046995.8,N
1680664215.7,286046999.4,N
1680664235.5,286046999.9,N
1680664255.3,286046999.7,N
1680664275.2,286047001.1,N
1680664295.0,286046998.1,N
1680664295.9,286046998.1,N
1680664315.8,286047001.2,N
1680664335.6,286046998.6,N
1680664355.4,286046997.5,N
1680664375.3,286046993.4,Y
1680664395.1,286046995.8,P
1680664415.8,286046996.7,N
1680664435.7,286046996.9,N
1680664455.5,286046998.4,N
1680664475.4,286047000.6,N
1680664495.2,286047001.6,N
1680664515.0,286047003.9,N
1680664515.9,286047003.9,N
1680664535.8,286047004.7,N
1680664555.6,286047005.3,N
1680664575.5,286047005.6,N
1680664595.3,286047004.8,N
1680664615.1,286047005.5,N
1680664635.9,286047002.9,N
1680664655.7,286047004.3,N
1680664675.5,286047000.2,N
1680664695.4,286046996.6,N
1680664715.2,286046996.6,N
1680664735.1,286046999.0,N
1680664736.0,286046999.0,N
1680664755.8,286046998.3,N
1680664775.6,286047001.0,N
1680664795.5,286047000.6,N
1680664815.3,286046999.9,N
1680664835.1,286047004.4,N
1680664855.9,286047002.8,N
1680664875.7,286047000.4,N
1680664895.6,286047000.5,N
1680664915.4,286047000.7,N
1680664935.2,286047001.0,N
1680664955.1,286047000.1,N
1680664956.0,286047000.1,N
1680664975.8,286047002.4,N
1680664995.7,286047001.3,N
1680665015.5,286047002.2,N
1680665035.3,286047000.9,N
1680665055.2,286046999.6,N
1680665075.0,286046998.4,N
1680665075.9,286046998.4,N
1680665095.8,286046997.1,N
1680665115.6,286046997.3,N
1680665135.4,286046995.0,N
1680665155.3,286046997.8,N
1680665175.1,286046997.0,N
1680665195.8,286046998.8,N
1680665215.7,286046998.3,N
1680665235.5,286047000.4,N
1680665255.4,286046999.7,N
1680665275.2,286047001.4,N
1680665295.0,286047000.9,N
1680665295.9,286047000.9,N
1680665315.8,286046999.9,N
1680665335.6,286047000.0,N
1680665355.5,286047003.2,N
1680665375.3,286047002.5,N
1680665395.1,286047001.0,N
1680665415.9,286046999.8,N
1680665435.7,286047001.9,N
1680665455.5,286047001.8,N
1680665475.4,286047003.5,N
1680665495.2,286047004.2,N
1680665515.1,286046998.2,N
1680665516.0,286046998.2,N
1680665535.8,286047000.8,N
1680665555.6,286046999.7,N
1680665575.5,286046998.2,N
1680665595.3,286046998.2,N
1680665615.2,286046999.3,N
1680665635.9,286046997.1,N
1680665655.7,286046999.3,N
1680665675.6,286046998.7,N
1680665695.4,286046997.9,N
1680665715.2,286046999.2,N
1680665735.1,286047001.0,N
1680665736.0,286047001.0,N
1680665755.8,286046998.3,N
1680665775.7,286046998.2,N
1680665795.5,286046998.6,N
1680665815.3,286047000.7,N
1680665835.2,286047000.4,N
1680665855.0,286047002.6,N
1680665855.9,286047002.6,N
1680665875.8,286047001.9,N
1680665895.6,286047004.1,N
1680665915.4,286047005.6,N
1680665935.3,286047004.1,N
1680665955.1,286047001.3,N
1680665975.8,286047001.7,N
1680665995.7,286047001.7,N
1680666015.5,286047002.1,N
1680666035.4,286047001.7,N
1680666055.2,286047001.9,N
1680666075.0,286047003.9,N
1680666075.9,286047003.9,N
1680666095.8,286047002.1,N
1680666115.6,286046999.7,N
1680666135.5,286046996.7,N
1680666155.3,286046999.6,N
1680666175.1,286046998.8,N
1680666195.9,286047001.1,N
1680666215.7,286046999.7,N
1680666235.5,286047001.9,N
1680666255.4,286047001.8,N
1680666275.2,286047002.3,N
1680666295.1,286047001.5,N
1680666296.0,286047001.5,N
1680666315.8,286047003.2,N
1680666335.6,286047003.3,N
1680666355.5,286047003.3,N
1680666375.3,286047003.3,N
1680666395.2,286047004.2,N
1680666415.9,286047003.7,N
1680666435.7,286047003.6,N
1680666455.6,286047005.5,N
1680666475.4,286047005.7,N
1680666495.2,286047007.5,Y
1680666515.1,286047004.2,P
1680666516.0,286047004.2,P
1680666535.8,286047004.7,P
1680666555.7,286047003.6,Y
1680666575.5,286046995.2,P
1680666595.3,286046997.2,N
1680666615.2,286046995.8,N
1680666635.0,286046995.9,N
1680666635.9,286046995.9,N
1680666655.7,286046997.7,N
1680666675.6,286046994.6,N
1680666695.4,286046992.7,N
1680666715.3,286046994.8,N
1680666735.1,286046993.9,N
1680666736.0,286046993.9,N
1680666755.8,286046998.0,N
1680666775.7,286046998.0,N
1680666795.5,286046997.6,N
1680666815.4,286046995.7,N
1680666835.2,286046995.5,N
1680666855.0,286046995.4,N
1680666855.9,286046995.4,N
1680666875.8,286046994.4,N
1680666895.6,286046993.5,N
1680666915.4,286046993.6,N
1680666935.3,286046996.2,N
1680666955.1,286046995.5,N
1680666975.9,286046997.2,N
1680666995.7,286046996.9,N
1680667015.5,286046996.7,N
1680667035.4,286046995.7,N
1680667055.2,286046993.5,Y
1680667075.0,286046999.2,P
1680667075.9,286046999.2,N
1680667095.8,286047001.1,N
1680667115.6,286046999.5,N
1680667135.5,286046998.8,N
1680667155.3,286046998.5,N
1680667175.1,286047001.1,N
1680667195.9,286047000.7,N
